EUS37SM EIDW-EINN

Flight info

Callsign EUS37SM
Flight time 0h 28m
Altitude 20000
Route PELIG2J PELIG DCT DIGAN DIGAN2E
Aircraft A320/M-SDE3FGHIRWY/LB1

Departure

Time 2026-05-01 13:07
Airport Dublin Airport (EIDW)

Arrival

Time 2026-05-01 13:35
Airport Shannon Airport (EINN)
Time Latitude Longitude Altitude Speed Heading
2026-05-01 12:51 53.43304 -6.25345 211 ft 0 kts 336°
2026-05-01 12:56 53.43303 -6.25344 211 ft 2 kts 336°
2026-05-01 12:56 53.43280 -6.25327 211 ft 4 kts 336°
2026-05-01 12:56 53.43256 -6.25309 218 ft 4 kts 339°
2026-05-01 12:57 53.43240 -6.25299 211 ft 4 kts 59°
2026-05-01 12:57 53.43231 -6.25242 211 ft 2 kts 88°
2026-05-01 12:57 53.43230 -6.25274 212 ft 0 kts 88°
2026-05-01 12:59 53.43228 -6.25205 217 ft 3 kts 94°
2026-05-01 13:00 53.43219 -6.25038 211 ft 11 kts 95°
2026-05-01 13:00 53.43211 -6.24894 216 ft 14 kts 95°
2026-05-01 13:01 53.43193 -6.24573 211 ft 15 kts 96°
2026-05-01 13:01 53.43221 -6.24420 211 ft 16 kts 20°
2026-05-01 13:01 53.43337 -6.24240 211 ft 14 kts 96°
2026-05-01 13:02 53.43326 -6.24096 213 ft 1 kts 97°
2026-05-01 13:07 53.50937 -6.49797 7260 ft 268 kts 247°
2026-05-01 13:07 53.50121 -6.52591 8216 ft 267 kts 237°
2026-05-01 13:07 53.49214 -6.55350 8990 ft 272 kts 236°
2026-05-01 13:08 53.48299 -6.58136 10004 ft 273 kts 236°
2026-05-01 13:08 53.47357 -6.61005 10541 ft 292 kts 236°
2026-05-01 13:08 53.46333 -6.64088 11000 ft 308 kts 235°
2026-05-01 13:08 53.45233 -6.67161 11754 ft 314 kts 234°
2026-05-01 13:09 53.44066 -6.70274 12595 ft 317 kts 233°
2026-05-01 13:09 53.42867 -6.73409 13431 ft 322 kts 233°
2026-05-01 13:09 53.41648 -6.76584 14192 ft 326 kts 233°
2026-05-01 13:09 53.40419 -6.79793 14931 ft 329 kts 233°
2026-05-01 13:10 53.39182 -6.83037 15653 ft 332 kts 232°
2026-05-01 13:10 53.37935 -6.86316 16367 ft 335 kts 232°
2026-05-01 13:10 53.36679 -6.89617 17098 ft 338 kts 232°
2026-05-01 13:10 53.35414 -6.92948 17813 ft 341 kts 232°
2026-05-01 13:11 53.34138 -6.96311 18512 ft 343 kts 232°
2026-05-01 13:11 53.32852 -6.99692 19123 ft 346 kts 232°
2026-05-01 13:11 53.31550 -7.03109 19716 ft 350 kts 232°
2026-05-01 13:11 53.30236 -7.06548 20011 ft 352 kts 232°
2026-05-01 13:12 53.28931 -7.09967 20082 ft 342 kts 232°
2026-05-01 13:12 53.27680 -7.13251 20094 ft 330 kts 231°
2026-05-01 13:12 53.26450 -7.16465 20095 ft 327 kts 231°
2026-05-01 13:12 53.25222 -7.19660 20112 ft 326 kts 231°
2026-05-01 13:13 53.24002 -7.22832 20092 ft 324 kts 231°
2026-05-01 13:13 53.22785 -7.25991 20101 ft 324 kts 231°
2026-05-01 13:13 53.21566 -7.29146 20100 ft 323 kts 231°
2026-05-01 13:13 53.20348 -7.32299 20100 ft 323 kts 231°
2026-05-01 13:14 53.19265 -7.35611 20098 ft 327 kts 237°
2026-05-01 13:14 53.18254 -7.39010 20100 ft 327 kts 237°
2026-05-01 13:14 53.17241 -7.42404 20099 ft 327 kts 237°
2026-05-01 13:14 53.16226 -7.45795 20098 ft 327 kts 237°
2026-05-01 13:15 53.15210 -7.49183 20096 ft 327 kts 237°
2026-05-01 13:15 53.14192 -7.52571 20097 ft 327 kts 237°
2026-05-01 13:15 53.13174 -7.55952 20098 ft 327 kts 237°
2026-05-01 13:15 53.12156 -7.59325 20095 ft 326 kts 237°
2026-05-01 13:16 53.11136 -7.62702 20101 ft 327 kts 237°
2026-05-01 13:16 53.10114 -7.66079 20137 ft 327 kts 237°
2026-05-01 13:16 53.09091 -7.69456 20126 ft 327 kts 237°
2026-05-01 13:17 53.06015 -7.79583 20108 ft 327 kts 236°
2026-05-01 13:17 53.04986 -7.82959 20097 ft 328 kts 236°
2026-05-01 13:18 53.02927 -7.89707 20095 ft 327 kts 236°
2026-05-01 13:18 53.01896 -7.93078 20097 ft 327 kts 236°
2026-05-01 13:18 53.00865 -7.96450 20093 ft 327 kts 236°
2026-05-01 13:18 52.99835 -7.99819 20109 ft 328 kts 236°
2026-05-01 13:19 52.98801 -8.03186 20098 ft 328 kts 236°
2026-05-01 13:19 52.97765 -8.06550 20099 ft 327 kts 236°
2026-05-01 13:19 52.95697 -8.13227 20146 ft 328 kts 237°
2026-05-01 13:20 52.94653 -8.16603 20126 ft 329 kts 237°
2026-05-01 13:20 52.93752 -8.20115 20118 ft 335 kts 246°
2026-05-01 13:20 52.93270 -8.23920 19950 ft 339 kts 254°
2026-05-01 13:21 52.92531 -8.31658 18996 ft 339 kts 255°
2026-05-01 13:21 52.92168 -8.35502 18586 ft 337 kts 255°
2026-05-01 13:21 52.91803 -8.39321 18142 ft 335 kts 255°
2026-05-01 13:21 52.91436 -8.43110 17721 ft 331 kts 255°
2026-05-01 13:22 52.91071 -8.46862 17320 ft 328 kts 254°
2026-05-01 13:22 52.90704 -8.50626 16921 ft 325 kts 254°
2026-05-01 13:22 52.90347 -8.54258 16532 ft 323 kts 254°
2026-05-01 13:22 52.89985 -8.57911 16135 ft 320 kts 254°
2026-05-01 13:23 52.89624 -8.61537 15766 ft 318 kts 254°
2026-05-01 13:23 52.89265 -8.65141 15401 ft 317 kts 254°
2026-05-01 13:23 52.88905 -8.68741 15016 ft 316 kts 255°
2026-05-01 13:23 52.88546 -8.72328 14640 ft 315 kts 255°
2026-05-01 13:24 52.88187 -8.75895 14275 ft 314 kts 255°
2026-05-01 13:24 52.87827 -8.79447 13896 ft 312 kts 255°
2026-05-01 13:24 52.87466 -8.82986 13497 ft 311 kts 255°
2026-05-01 13:25 52.86195 -8.89604 12743 ft 296 kts 235°
2026-05-01 13:25 52.85413 -8.91483 12499 ft 292 kts 228°
2026-05-01 13:25 52.84166 -8.94122 12133 ft 290 kts 229°
2026-05-01 13:25 52.82928 -8.96750 11764 ft 289 kts 229°
2026-05-01 13:26 52.81698 -8.99365 11387 ft 287 kts 229°
2026-05-01 13:26 52.80475 -9.01966 11025 ft 285 kts 229°
2026-05-01 13:26 52.79259 -9.04548 10654 ft 284 kts 229°
2026-05-01 13:26 52.78049 -9.07112 10287 ft 282 kts 229°
2026-05-01 13:27 52.76844 -9.09661 9987 ft 279 kts 230°
2026-05-01 13:27 52.75669 -9.12146 9720 ft 272 kts 230°
2026-05-01 13:27 52.73352 -9.17045 8875 ft 271 kts 230°
2026-05-01 13:28 52.71031 -9.21941 8023 ft 271 kts 229°
2026-05-01 13:28 52.69875 -9.24368 7602 ft 270 kts 229°
2026-05-01 13:29 52.67572 -9.29201 6819 ft 266 kts 227°
2026-05-01 13:29 52.64437 -9.31741 5900 ft 257 kts 178°
2026-05-01 13:30 52.58470 -9.25559 4447 ft 245 kts 144°
2026-05-01 13:31 52.56630 -9.21104 3848 ft 246 kts 90°
2026-05-01 13:31 52.59701 -9.14934 3182 ft 239 kts 56°
2026-05-01 13:32 52.61675 -9.10514 2533 ft 241 kts 55°
2026-05-01 13:33 52.64755 -9.04018 1545 ft 226 kts 54°
2026-05-01 13:33 52.66497 -9.00338 988 ft 187 kts 56°
2026-05-01 13:34 52.67992 -8.97168 551 ft 164 kts 54°
2026-05-01 13:34 52.69263 -8.94471 121 ft 138 kts 59°
2026-05-01 13:35 52.70257 -8.92352 17 ft 61 kts 51°
2026-05-01 13:35 52.70472 -8.91889 15 ft 53 kts 54°
2026-05-01 13:35 52.70761 -8.91216 7 ft 19 kts 109°
2026-05-01 13:36 52.70649 -8.91145 9 ft 18 kts 169°
2026-05-01 13:36 52.70521 -8.91104 10 ft 20 kts 168°
2026-05-01 13:36 52.70266 -8.91025 11 ft 12 kts 169°
2026-05-01 13:37 52.70180 -8.91018 11 ft 14 kts 197°
2026-05-01 13:37 52.70082 -8.91072 12 ft 16 kts 197°
2026-05-01 13:37 52.69969 -8.91132 13 ft 18 kts 200°
2026-05-01 13:37 52.69847 -8.91202 14 ft 19 kts 199°
2026-05-01 13:38 52.69575 -8.91354 17 ft 22 kts 199°
2026-05-01 13:38 52.69471 -8.91411 18 ft 15 kts 198°
2026-05-01 13:38 52.69367 -8.91467 20 ft 17 kts 198°
2026-05-01 13:39 52.69263 -8.91528 19 ft 13 kts 204°
2026-05-01 13:39 52.69209 -8.91593 20 ft 4 kts 218°
2026-05-01 13:39 52.69184 -8.91596 20 ft 4 kts 181°
2026-05-01 13:39 52.69153 -8.91597 20 ft 4 kts 181°
2026-05-01 13:40 52.69152 -8.91597 20 ft 0 kts 181°